This is the latest recevied weather packets stored in our database for station/object OZ1IEP-5. If no packets are shown the sender has not sent any weather packets the latest 10 day(s).
| Time | Temp. | Humidity | Pressure | Rain* | Wind** | Luminosity | Snow |
|---|---|---|---|---|---|---|---|
| 1777887605 | 12.78° C | 78% | 1008.6 hPa | 0 mm | - | 745 W/m² | - |
| 1777887008 | 12.22° C | 78% | 1008.6 hPa | 0 mm | - | 608 W/m² | - |
| 1777886406 | 12.22° C | 80% | 1008.4 hPa | 0 mm | - | 612 W/m² | - |
| 1777885805 | 12.22° C | 84% | 1008.3 hPa | 0 mm | - | 700 W/m² | - |
| 1777885208 | 11.67° C | 86% | 1008.2 hPa | 0 mm | - | 675 W/m² | - |
| 1777884606 | 11.11° C | 89% | 1008.1 hPa | 0 mm | - | 649 W/m² | - |
| 1777884005 | 11.11° C | 91% | 1007.9 hPa | 0 mm | - | 701 W/m² | - |
| 1777883408 | 10.56° C | 93% | 1007.8 hPa | 0 mm | - | 427 W/m² | - |
| 1777882805 | 10° C | 93% | 1007.8 hPa | 0 mm | - | 577 W/m² | - |
| 1777882205 | 10° C | 93% | 1007.7 hPa | 0 mm | - | 246 W/m² | - |
| 1777881608 | 10.56° C | 93% | 1007.7 hPa | 0 mm | - | 111 W/m² | - |
| 1777881005 | 10.56° C | 93% | 1007.3 hPa | 0 mm | - | 44 W/m² | - |
| 1777880406 | 11.11° C | 94% | 1007.2 hPa | 0 mm | - | 58 W/m² | - |
| 1777879808 | 11.11° C | 94% | 1006.9 hPa | 0 mm | - | 76 W/m² | - |
| 1777879205 | 11.11° C | 94% | 1006.7 hPa | 0 mm | - | 35 W/m² | - |
| 1777878606 | 11.11° C | 94% | 1006.7 hPa | 0 mm | - | 58 W/m² | - |
| 1777878008 | 11.11° C | 94% | 1006.6 hPa | 0 mm | - | 40 W/m² | - |
| 1777877405 | 11.11° C | 94% | 1006.5 hPa | 0 mm | - | 35 W/m² | - |
| 1777876805 | 11.11° C | 94% | 1006.2 hPa | 0 mm | - | 53 W/m² | - |
| 1777876208 | 11.11° C | 94% | 1006.1 hPa | 0 mm | - | 49 W/m² | - |
| 1777875605 | 11.11° C | 94% | 1006 hPa | 0 mm | - | 67 W/m² | - |
| 1777875006 | 11.11° C | 94% | 1005.7 hPa | 0 mm | - | 35 W/m² | - |
| 1777874409 | 10.56° C | 94% | 1005.6 hPa | 0 mm | - | 63 W/m² | - |
| 1777873805 | 10.56° C | 93% | 1005.6 hPa | 0 mm | - | 76 W/m² | - |
| 1777873206 | 10.56° C | 93% | 1005.6 hPa | 0 mm | - | 35 W/m² | - |
* Rain latest hour (hover to see other rain measurements)
** Current wind speed in m/s (hover to see current wind gust speed)